Find Flylab-1

NORAD ID: 68477 Int'l Des: NNA 2026-067 Owner: ONERA Country: F operational
LEOCIRCULARRETROGRADESSO

Live Position

Loading 3D Globe...

About Flylab-1

Description loading...

Upcoming Passes

Passes for default location (London). Set your location on the main map for personalized predictions.

Altitude History

Loading altitude history...

Two-Line Element Set

1 68477U 26067BP 26107.82225959 .00004501 00000-0 46026-3 0 9992
2 68477 97.7492 66.9968 0002329 257.2172 102.8786 14.91045635 2134
Epoch: Apr 17, 2026 • Age: 78 hours

Current Status

Altitude 602.2 km
Velocity 7.56 km/s
Sub-Earth Point -23.23°S, 8.44°E
Launch Date Mar 30, 2026
Age 22 days
Type other

Technical Details

Classification Payload
Mass 15.00 kg
Dry Mass 15.00 kg
Total Mass 15.00 kg
Length 0.40 m
Diameter 0.20 m
Span 0.70 m
Shape Box+ 4 pan
Manufacturer NANAV
Bus Type Cubesat 8U
Phase Status In Orbit
Owner/State ONERA/F

Most Searched